Погода в Куряеве

Россия / Тверская область     57°02′59″N   33°05′34″E
темп.,
°C
ветер,
м/с
пор.,
м/с
влажн.,
%
обл.,
%
осадки,
мм/ч
давл.,
гПа
погр.,
м
17 мая, вт
вт1700:00+6сз41188100 0.0 1010565
03:00+4сз31194100 0.0 1010442
06:00+4зсз41089100 0.0 1010419
09:00+8сз5876100 0.0 1009786
12:00+8сз5875100 0.1 10101017
15:00+10ссз5869100 0.3 10091304
18:00+7с5981100 0.2 1011943
21:00+5ссз51190100 0.3 1013645
18 мая, ср
ср1800:00+5ссз41090100 0.0 1014594
03:00+4ссз4891100 0.0 1015571
06:00+3ссз5989100 0.0 1017465
09:00+6ссз5877100 0.0 1018719
12:00+8сз5864100 0.0 10191177
15:00+11сз684776 0.0 10181641
18:00+11сз495210 0.0 10171650
21:00+7з38755 0.0 1017168
19 мая, чт
чт1900:00+6з414755 0.0 1016380
03:00+5з4137768 0.0 1016461
06:00+5зсз41276100 0.0 1016542
09:00+8зсз4667100 0.0 1017598
12:00+12сз5756100 0.0 10171631
15:00+10сз5871100 0.1 1018870
18:00+11зсз476699 0.1 10171261
21:00+6сз237551 0.1 101856
20 мая, пт
пт2000:00+3с26682 0.0 1019103
03:00+1ссв247834 0.0 102165
06:00+2всв258216 0.0 1021151
09:00+7в2355100 0.0 1021875
12:00+11всв2242100 0.0 10191456
15:00+12всв2238100 0.0 10181852
18:00+11всв2348100 0.0 10171187
21:00+6в2369100 0.0 101756
21 мая, сб
сб2100:00+3всв23755 0.0 101753
03:00+2св26785 0.0 1017101
06:00+3всв27732 0.0 1018209
09:00+9всв35505 0.0 1017805
12:00+12св443898 0.0 10162295
15:00+13св443328 0.0 10152301
18:00+12всв343469 0.0 10152178
21:00+6всв24635 0.0 101760